Location: Asheville, NC
(35.6000°N, 82.5500°W)
Time: 01:30:22
(UTC-05:00)

Vanguard 1 Rocket - Pass Details

Date: 14 February 2018
Orbit: 655 x 4222 km, 34.3° (Epoch: 23 February)

Event Time Altitude Azimuth Distance (km) Brightness Sun altitude
Rises 00:20:05 0° 235° (SW) 7,218 11.9 -66.8°
Enters shadow 00:22:06 - 234° (SW) 6,893 11.7 -66.9°
Exits shadow 01:02:55 34° 84° (E) 5,282 11.0 -67.0°
Drops below altitude 10° 01:11:56 10° 78° (ENE) 6,508 11.8 -66.6°
Sets 01:16:10 0° 76° (ENE) 7,187 12.1 -66.3°
